Regional Weather Roundup
Issued by NWS

Home | Current Version | Previous Version | Text Only | Print | Product List | Glossary On
Versions: 1 2 3 4 5 6 7 8 9 10 11 12 13 14 15 16 17 18 19 20 21 22 23 24 25 26 27 28 29 30 31 32 33 34 35 36 37 38 39 40 41 42 43 44 45 46 47 48 49 50
000
ASUS43 KFSD 240110
RWRSD

WEATHER ROUNDUP FOR SOUTH DAKOTA
NATIONAL WEATHER SERVICE SIOUX FALLS SD
800 PM CDT TUE MAY 23 2017

NOTE: "FAIR" INDICATES FEW OR NO CLOUDS BELOW 12,000 FEET WITH NO
SIGNIFICANT WEATHER AND/OR OBSTRUCTIONS TO VISIBILITY.


SDZ001>005-009-010-012>017-240200-
NORTHWEST AND NORTH CENTRAL SOUTH DAKOTA

CITY           SKY/WX    TMP DP  RH WIND       PRES   REMARKS
BUFFALO          N/A     63  36  36 NE6       29.96F
FAITH            N/A     59  36  42 NE12      30.01S
MOBRIDGE       MOSUNNY   61  36  39 N10       29.97S
$$

SDZ012>016-024>037-041>051-057-063-072>074-240200-
SOUTHWEST AND SOUTH CENTRAL SOUTH DAKOTA

CITY           SKY/WX    TMP DP  RH WIND       PRES   REMARKS
RAPID CTY ARPT SUNNY     60  34  37 N15       30.03S
PIERRE         PTSUNNY   57  38  48 N16       29.98F
CUSTER         CLOUDY    53  27  36 N9        30.08S
ELLSWORTH AFB  SUNNY     62  33  34 N14       30.03S
PHILIP         SUNNY     59  38  45 NE9       30.01F
PINE RIDGE     SUNNY     59  36  42 N12G22    30.03F
SPEARFISH      FAIR      59  37  44 NE6       30.06F
WINNER         CLOUDY    54  42  64 N12       29.99S
$$

SDZ004>011-016>023-039-040-240200-
NORTHEAST SOUTH DAKOTA

CITY           SKY/WX    TMP DP  RH WIND       PRES   REMARKS
ABERDEEN       CLEAR     54  40  59 N13       29.96S
WATERTOWN      CLOUDY    51  44  77 N13       29.91R
BROOKINGS      CLOUDY    52  46  80 N15       29.89R
SISSETON         N/A     55  46  71 NE17      29.92R
$$

SDZ017-020-022-023-036>040-048>070-240200-
SOUTHEAST SOUTH DAKOTA

CITY           SKY/WX    TMP DP  RH WIND       PRES   REMARKS
SIOUX FALLS    MOCLDY    53  46  77 N18       29.87R
HURON          CLOUDY    52  45  77 N10       29.94S
CHAMBERLAIN    CLOUDY    55  44  65 N8        29.97S
MITCHELL       CLOUDY    53  45  74 N16       29.94R
YANKTON        MOCLDY    52  47  83 NW12      29.89R
$$

ABBREVIATIONS USED IN REMARKS
   TC - TEMPERATURE IN CELSIUS
  WCI - WIND CHILL INDEX
   HX - HEAT INDEX
  VSB - VISIBILITY





USA.gov is the U.S. government's official web portal to all federal, state and local government web resources and services.